Overview Statistics Trail Chart Weather Telemetry Raw packets
 

This is the latest recevied weather packets stored in our database for station/object NW5W-12. If no packets are shown the sender has not sent any weather packets the latest 10 day(s).

<< 95 96 97 98 99 100 101 >>
Time Temp. Humidity Pressure Rain* Wind** Luminosity Snow
1787993340 14.44° C 83% 1022.1 hPa 0 mm - - -
1787993040 14.44° C 83% 1022.1 hPa 0 mm - - -
1787992740 14.44° C 84% 1021.8 hPa 0 mm - - -
1787992440 13.89° C 84% 1021.8 hPa 0 mm - - -
1787992140 13.89° C 86% 1021.7 hPa 0 mm - - -
1787991839 13.89° C 88% 1021.8 hPa 0 mm - - -
1787991540 13.89° C 88% 1021.6 hPa 0 mm - - -
1787991240 13.89° C 90% 1021.6 hPa 0 mm - - -
1787990939 13.89° C 90% 1021.5 hPa 0 mm - - -
1787990640 13.89° C 91% 1021.5 hPa 0 mm - - -
1787990340 13.89° C 91% 1021.7 hPa 0 mm - - -
1787990040 13.89° C 93% 1021.7 hPa 0 mm - - -
1787989740 13.89° C 93% 1021.7 hPa 0 mm - - -
1787989439 13.89° C 92% 1021.8 hPa 0 mm - - -
1787989140 14.44° C 90% 1021.9 hPa 0 mm - - -
1787988840 15° C 86% 1021.9 hPa 0 mm - - -
1787988540 15° C 84% 1021.9 hPa 0 mm - - -
1787988240 15° C 83% 1022 hPa 0 mm - - -
1787987940 15.56° C 83% 1022.1 hPa 0 mm - - -
1787987640 15.56° C 82% 1021.8 hPa 0 mm - - -
1787987339 15.56° C 83% 1021.6 hPa 0 mm - - -
1787987040 15° C 82% 1021.9 hPa 0 mm - - -
1787986740 14.44° C 85% 1021.8 hPa 0 mm - - -
1787986439 14.44° C 90% 1021.7 hPa 0 mm - - -
1787986140 14.44° C 92% 1022 hPa 0 mm - - -

* Rain since midnight (hover to see other rain measurements)
** Current wind speed in m/s (hover to see current wind gust speed)